Chicago DuPage, IL

9:20 PM CDT on April 28, 2017 (GMT -0500)
Du Page

Weather History for KDPA - March, 2014

Change the Weather History Date:

Monday, March 17, 2014

  Actual Average Record
Temperature  
Mean Temperature 25 °F 38 °F  
Max Temperature 39 °F 48 °F 80 °F (2012)
Min Temperature 10 °F 28 °F 10 °F (2014)
Degree Days  
Heating Degree Days 40 27  
Month to date heating degree days 685 503  
Since 1 July heating degree days 6461 5258  
Cooling Degree Days 0 0  
Month to date cooling degree days 0 0  
Year to date cooling degree days 0 0  
Moisture  
Dew Point 14 °F    
Average Humidity 63    
Maximum Humidity 88    
Minimum Humidity 36    
Precipitation  
Precipitation 0.00 in 0.08 in 0.38 in (1998)
Month to date precipitation 0.10 1.21  
Year to date precipitation 1.32 3.94  
Sea Level Pressure  
Sea Level Pressure 29.94 in    
Wind  
Wind Speed 8 mph (SE)    
Max Wind Speed 17 mph    
Max Gust Speed 21 mph    
Visibility 10 miles    
Events      
T = Trace of Precipitation, MM = Missing Value Source: NWS Daily Summary

Daily Weather History Graph

Daily Weather History Graph

Search for Another Location

Airport or City:

Trip Planner

Search our weather history database for the weather conditions in past years. The results will help you decide how hot, cold, wet, or windy it might be!

Date:

Astronomy

Mar. 17, 2014 Rise Set
Actual Time 7:01 AM CDT 7:01 PM CDT
Civil Twilight 6:33 AM CDT 7:29 PM CDT
Nautical Twilight 6:01 AM CDT 8:02 PM CDT
Astronomical Twilight 5:28 AM CDT 8:35 PM CDT
Moon 8:20 PM CDT (3/17) 7:15 AM CDT (3/17)
Length of Visible Light 12h 56m
Length of Day
12h 00m
Full, 99% of the Moon is Illuminated
Mar 17
Full
Mar 23
Last Quarter
Mar 30
New
Apr 7
First Quarter
Apr 15
Full

Hourly Weather History & Observations

Time (CDT) Temp. Windchill Dew Point Humidity Pressure Visibility Wind Dir Wind Speed Gust Speed Precip Events Conditions
12:52 AM 12.0 °F 4.1 °F 8.1 °F 84% 30.16 in 10.0 mi NNE 4.6 mph - N/A   Clear
1:52 AM 14.0 °F 8.2 °F 9.0 °F 80% 30.12 in 10.0 mi NE 3.5 mph - N/A   Clear
2:52 AM 10.9 °F 2.9 °F 7.0 °F 84% 30.10 in 10.0 mi North 4.6 mph - N/A   Clear
3:52 AM 10.9 °F 4.7 °F 7.0 °F 84% 30.07 in 10.0 mi North 3.5 mph - N/A   Clear
4:52 AM 10.9 °F 2.9 °F 8.1 °F 88% 30.05 in 10.0 mi North 4.6 mph - N/A   Clear
5:52 AM 12.9 °F 6.9 °F 9.0 °F 84% 30.04 in 10.0 mi NNE 3.5 mph - N/A   Clear
6:52 AM 12.9 °F - 9.0 °F 84% 30.03 in 10.0 mi Calm Calm - N/A   Clear
7:52 AM 18.0 °F - 12.9 °F 81% 30.02 in 10.0 mi Calm Calm - N/A   Clear
8:52 AM 21.9 °F 10.4 °F 7.0 °F 53% 30.00 in 10.0 mi ESE 11.5 mph - N/A   Clear
9:52 AM 26.1 °F 17.6 °F 3.9 °F 39% 29.99 in 10.0 mi SE 8.1 mph - N/A   Clear
10:52 AM 28.0 °F 20.8 °F 3.9 °F 36% 29.98 in 10.0 mi SSE 6.9 mph - N/A   Clear
11:52 AM 30.9 °F 23.5 °F 7.0 °F 37% 29.96 in 10.0 mi SSE 8.1 mph - N/A   Clear
12:52 PM 33.1 °F 25.5 °F 10.9 °F 40% 29.93 in 10.0 mi SSE 9.2 mph - N/A   Clear
1:52 PM 35.1 °F 27.9 °F 12.9 °F 40% 29.88 in 10.0 mi SSE 9.2 mph - N/A   Clear
2:52 PM 37.9 °F 30.5 °F 15.1 °F 39% 29.84 in 10.0 mi SSE 11.5 mph - N/A   Clear
3:52 PM 37.9 °F 31.5 °F 15.1 °F 39% 29.84 in 10.0 mi South 9.2 mph - N/A   Clear
4:52 PM 37.9 °F 30.5 °F 17.1 °F 43% 29.81 in 10.0 mi South 11.5 mph - N/A   Partly Cloudy
5:52 PM 37.0 °F 28.5 °F 19.9 °F 50% 29.82 in 10.0 mi SSE 13.8 mph - N/A   Partly Cloudy
6:52 PM 35.1 °F 26.9 °F 21.0 °F 57% 29.81 in 10.0 mi SSE 11.5 mph - N/A   Clear
7:52 PM 34.0 °F 26.6 °F 24.1 °F 67% 29.82 in 10.0 mi SSE 9.2 mph - N/A   Partly Cloudy
8:52 PM 33.1 °F 24.4 °F 25.0 °F 72% 29.82 in 10.0 mi SSE 11.5 mph - N/A   Clear
9:52 PM 32.0 °F 24.2 °F 25.0 °F 75% 29.83 in 10.0 mi SSE 9.2 mph - N/A   Clear
10:52 PM 30.0 °F 23.2 °F 25.0 °F 82% 29.85 in 10.0 mi South 6.9 mph - N/A   Clear
11:52 PM 30.9 °F 23.5 °F 25.0 °F 79% 29.86 in 10.0 mi SSE 8.1 mph - N/A   Clear